Location: Poughquag
(41.6090°N, 73.6820°W)
Time: 04:36:56
(UTC-05:00)

Tiros 1 - All Passes

Search period start: 05 December 2023 00:00
Search period end: 15 December 2023 00:00
Orbit: 626 x 659 km, 48.4° (Epoch: 04 December)

Date Brightness Start Highest point End Pass type
(mag) Time Alt. Az. Time Alt. Az. Time Alt. Az.
05 Dec - 02:44:44 10° S 02:48:19 21° SE 02:51:55 10° E visible
05 Dec - 04:25:12 10° WSW 04:29:59 89° NW 04:34:48 10° ENE visible
05 Dec - 06:07:59 10° W 06:12:29 39° N 06:17:00 10° ENE visible
05 Dec - 07:50:48 10° WNW 07:55:21 41° N 07:59:52 10° E daylight
05 Dec - 09:33:00 10° WNW 09:37:47 83° SSW 09:42:32 10° ESE daylight
05 Dec - 11:16:08 10° W 11:19:22 18° SW 11:22:34 10° S daylight
06 Dec - 03:08:03 10° SSW 03:12:34 44° SE 03:17:06 10° ENE visible
06 Dec - 04:49:57 10° W 04:54:39 55° NNW 04:59:22 10° ENE visible
06 Dec - 06:32:58 10° WNW 06:37:24 36° N 06:41:49 10° ENE visible
06 Dec - 08:15:26 10° WNW 08:20:10 56° NNE 08:24:50 10° E daylight
06 Dec - 09:57:43 10° WNW 10:02:14 43° SW 10:06:41 10° SSE daylight
07 Dec - 01:52:07 10° S 01:55:24 19° SE 01:58:44 10° E night (unlit)
07 Dec - 03:32:13 10° WSW 03:37:00 84° SSE 03:41:48 10° ENE visible
07 Dec - 05:14:56 10° W 05:19:27 41° N 05:24:00 10° ENE visible
07 Dec - 06:57:47 10° WNW 07:02:19 39° N 07:06:48 10° E daylight
07 Dec - 08:40:00 10° WNW 08:44:49 90° NE 08:49:34 10° ESE daylight
07 Dec - 10:22:55 10° W 10:26:27 21° SW 10:29:58 10° S daylight
08 Dec - 02:15:12 10° SSW 02:19:37 39° SE 02:24:03 10° ENE night (unlit)
08 Dec - 03:56:54 10° WSW 04:01:37 59° NNW 04:06:22 10° ENE visible
08 Dec - 05:39:55 10° WNW 05:44:20 36° N 05:48:47 10° ENE visible
08 Dec - 07:22:26 10° WNW 07:27:08 52° NNE 07:31:48 10° E daylight
08 Dec - 09:04:40 10° WNW 09:09:16 48° SW 09:13:49 10° SE daylight
09 Dec - 00:59:33 10° S 01:02:30 16° SE 01:05:27 10° E night (unlit)
09 Dec - 02:39:16 10° SW 02:44:01 76° SSE 02:48:48 10° ENE visible
09 Dec - 04:21:51 10° W 04:26:24 42° NNW 04:30:58 10° ENE visible
09 Dec - 06:04:46 10° WNW 06:09:16 38° N 06:13:44 10° ENE visible
09 Dec - 07:46:59 10° WNW 07:51:48 83° NNE 07:56:35 10° ESE daylight
09 Dec - 09:29:44 10° W 09:33:31 24° SW 09:37:17 10° S daylight
10 Dec - 01:22:23 10° SSW 01:26:39 34° SE 01:30:58 10° ENE night (unlit)
10 Dec - 03:03:52 10° WSW 03:08:36 64° NNW 03:13:22 10° ENE visible
10 Dec - 04:46:51 10° WNW 04:51:17 36° N 04:55:43 10° ENE visible
10 Dec - 06:29:25 10° WNW 06:34:05 49° NNE 06:38:44 10° E visible
10 Dec - 08:11:37 10° WNW 08:16:17 54° SW 08:20:56 10° SE daylight
10 Dec - 09:56:47 10° WSW 09:57:35 10° SW 09:58:23 10° SW daylight
11 Dec - 00:07:05 10° SSE 00:09:34 14° SE 00:12:04 10° E night (unlit)
11 Dec - 01:46:18 10° SW 01:51:00 69° SSE 01:55:46 10° ENE night (unlit)
11 Dec - 03:28:46 10° W 03:33:20 44° NNW 03:37:56 10° ENE visible
11 Dec - 05:11:42 10° WNW 05:16:11 37° N 05:20:39 10° ENE visible
11 Dec - 06:53:58 10° WNW 06:58:47 76° NNE 07:03:33 10° ESE daylight
11 Dec - 08:36:34 10° W 08:40:34 27° SW 08:44:33 10° SSE daylight
12 Dec - 00:29:34 10° SSW 00:33:41 30° SE 00:37:51 10° ENE night (unlit)
12 Dec - 02:10:49 10° WSW 02:15:33 69° NNW 02:20:21 10° ENE night (unlit)
12 Dec - 03:53:46 10° WNW 03:58:12 37° N 04:02:39 10° ENE visible
12 Dec - 05:36:24 10° WNW 05:41:02 46° NNE 05:45:39 10° E visible
12 Dec - 07:18:34 10° WNW 07:23:18 61° SW 07:27:59 10° SE daylight
12 Dec - 09:02:45 10° WSW 09:04:40 12° SW 09:06:34 10° SSW daylight
12 Dec - 23:14:46 10° SSE 23:16:38 12° SE 23:18:31 10° ESE night (unlit)
13 Dec - 00:53:20 10° SW 00:58:00 61° SE 01:02:43 10° ENE night (unlit)
13 Dec - 02:35:41 10° W 02:40:16 46° NNW 02:44:54 10° ENE visible
13 Dec - 04:18:39 10° WNW 04:23:06 37° N 04:27:33 10° ENE visible
13 Dec - 06:00:56 10° WNW 06:05:44 70° NNE 06:10:30 10° ESE visible
13 Dec - 07:43:26 10° WNW 07:47:36 30° SW 07:51:45 10° SSE daylight
13 Dec - 23:36:47 10° SSW 23:40:43 27° SE 23:44:42 10° E night (unlit)
14 Dec - 01:17:46 10° WSW 01:22:31 75° NNW 01:27:18 10° ENE night (unlit)
14 Dec - 03:00:40 10° WNW 03:05:06 37° N 03:09:34 10° ENE visible
14 Dec - 04:43:21 10° WNW 04:47:56 44° NNE 04:52:32 10° E visible
14 Dec - 06:25:31 10° WNW 06:30:17 68° SSW 06:35:01 10° SE visible
14 Dec - 08:09:11 10° W 08:11:43 14° SW 08:14:14 10° SSW daylight
14 Dec - 22:23:00 10° SE 22:23:42 10° SE 22:24:25 10° ESE night (unlit)
